Eau Claire, WI

6:24 PM CDT on April 21, 2018 (GMT -0500)
Chippewa Valley Regional

Weather History for KEAU - January, 2013

Change the Weather History Date:

Tuesday, January 8, 2013

  Actual Average Record
Temperature  
Mean Temperature 22 °F 14 °F  
Max Temperature 37 °F 23 °F 53 °F (2003)
Min Temperature 7 °F 6 °F -30 °F (1894)
Degree Days  
Heating Degree Days 43 51  
Month to date heating degree days 394 403  
Since 1 July heating degree days 3421 3579  
Cooling Degree Days 0 0  
Month to date cooling degree days 0 0  
Year to date cooling degree days 0 0  
Moisture  
Dew Point 16 °F    
Average Humidity 78    
Maximum Humidity 92    
Minimum Humidity 64    
Precipitation  
Precipitation 0.00 in 0.03 in 0.46 in (1969)
Month to date precipitation T 0.22  
Year to date precipitation T 0.22  
Snow  
Snow 0.00 in 0.40 in 5.00 in (1969)
Month to date snowfall 0.1 3.0  
Since 1 July snowfall 21.9 18.8  
Snow Depth 4.00 in    
Sea Level Pressure  
Sea Level Pressure 29.95 in    
Wind  
Wind Speed 7 mph (South)    
Max Wind Speed 24 mph    
Max Gust Speed 31 mph    
Visibility 4 miles    
Events Fog    
T = Trace of Precipitation, MM = Missing Value Source: NWS Daily Summary

Daily Weather History Graph

Daily Weather History Graph

Search for Another Location

Airport or City:

Astronomy

Jan. 08, 2013 Rise Set
Actual Time 7:42 AM CST 4:43 PM CST
Civil Twilight 7:09 AM CST 5:16 PM CST
Nautical Twilight 6:33 AM CST 5:52 PM CST
Astronomical Twilight 5:57 AM CST 6:28 PM CST
Moon 4:15 AM CST (1/8) 1:45 PM CST (1/8)
Length of Visible Light 10h 06m
Length of Day
9h 00m
Waning Crescent, 13% of the Moon is Illuminated
Jan 8
Waning Crescent
Jan 11
New
Jan 18
First Quarter
Jan 26
Full
Feb 3
Last Quarter

Hourly Weather History & Observations

Time (CST) Temp. Windchill Dew Point Humidity Pressure Visibility Wind Dir Wind Speed Gust Speed Precip Events Conditions
12:56 AM 19.9 °F - 17.1 °F 89% 30.01 in 2.0 mi Calm Calm - N/A   Clear
1:06 AM 19.4 °F - 17.6 °F 93% 29.97 in 1.2 mi Calm Calm - N/A   Clear
1:19 AM 19.4 °F - 17.6 °F 93% 29.98 in 0.2 mi Calm Calm - N/A Fog Light Freezing Fog
1:49 AM 17.6 °F - 15.8 °F 93% 29.98 in 0.2 mi Calm Calm - N/A Fog Light Freezing Fog
1:56 AM 17.1 °F - 16.0 °F 96% 30.02 in 0.2 mi Calm Calm - N/A Fog Light Freezing Fog
2:05 AM 15.8 °F - 12.2 °F 86% 29.98 in 0.8 mi Calm Calm - N/A   Mist
2:12 AM 15.8 °F - 12.2 °F 86% 29.98 in 1.0 mi Calm Calm - N/A   Mist
2:20 AM 15.8 °F - 12.2 °F 86% 29.99 in 1.5 mi Calm Calm - N/A   Partly Cloudy
2:33 AM 17.6 °F - 15.8 °F 93% 29.98 in 0.8 mi Calm Calm - N/A   Mist
2:44 AM 17.6 °F - 15.8 °F 93% 29.99 in 0.2 mi Calm Calm - N/A Fog Light Freezing Fog
2:56 AM 16.0 °F - 14.0 °F 92% 30.03 in 0.2 mi Calm Calm - N/A Fog Light Freezing Fog
3:03 AM 15.8 °F - 14.0 °F 93% 29.98 in 0.2 mi Calm Calm - N/A Fog Light Freezing Fog
3:13 AM 15.8 °F - 12.2 °F 86% 29.98 in 1.0 mi Calm Calm - N/A   Mist
3:25 AM 15.8 °F - 12.2 °F 86% 29.98 in 0.2 mi Calm Calm - N/A Fog Light Freezing Fog
3:56 AM 14.0 °F 8.2 °F 10.9 °F 88% 30.01 in 0.2 mi South 3.5 mph - N/A Fog Light Freezing Fog
4:06 AM 14.0 °F 8.2 °F 10.4 °F 86% 29.97 in 0.2 mi SW 3.5 mph - N/A Fog Light Freezing Fog
4:22 AM 14.0 °F - 10.4 °F 86% 29.98 in 1.0 mi Calm Calm - N/A   Mist
4:24 AM 14.0 °F - 10.4 °F 86% 29.98 in 2.5 mi Calm Calm - N/A   Scattered Clouds
4:31 AM 12.2 °F - 8.6 °F 85% 29.98 in 6.0 mi Calm Calm - N/A   Partly Cloudy
4:45 AM 10.4 °F 4.0 °F 6.8 °F 85% 29.97 in 1.5 mi NE 3.5 mph - N/A   Haze
4:47 AM 10.4 °F 4.0 °F 6.8 °F 85% 29.97 in 0.8 mi NE 3.5 mph - N/A   Haze
4:56 AM 12.0 °F - 9.0 °F 88% 30.02 in 0.2 mi Calm Calm - N/A Fog Light Freezing Fog
5:05 AM 12.2 °F 6.1 °F 8.6 °F 85% 29.98 in 0.5 mi NNE 3.5 mph - N/A   Overcast
5:17 AM 12.2 °F 4.3 °F 6.8 °F 79% 29.98 in 2.0 mi NNE 4.6 mph - N/A   Haze
5:30 AM 12.2 °F - 8.6 °F 85% 29.97 in 0.8 mi Calm Calm - N/A   Mist
5:41 AM 10.4 °F - 6.8 °F 85% 29.97 in 0.2 mi Calm Calm - N/A Fog Light Freezing Fog
5:56 AM 12.9 °F - 10.0 °F 88% 30.02 in 0.2 mi Calm Calm - N/A Fog Light Freezing Fog
6:36 AM 12.2 °F - 6.8 °F 79% 29.97 in 2.0 mi Calm Calm - N/A   Haze
6:56 AM 10.0 °F - 5.0 °F 80% 30.03 in 6.0 mi Calm Calm - N/A   Haze
8:56 AM 15.1 °F 7.7 °F 10.9 °F 84% 30.04 in 5.0 mi NE 4.6 mph - N/A   Clear
9:56 AM 21.9 °F - 19.9 °F 92% 30.02 in 4.0 mi Calm Calm - N/A   Clear
10:56 AM 26.1 °F 20.5 °F 21.9 °F 84% 29.99 in 7.0 mi NE 4.6 mph - N/A   Clear
11:56 AM 32.0 °F 23.6 °F 25.0 °F 75% 29.95 in 10.0 mi SE 10.4 mph - N/A   Clear
12:56 PM 35.1 °F 26.9 °F 26.1 °F 70% 29.91 in 10.0 mi SE 11.5 mph - N/A   Clear
1:56 PM 36.0 °F 28.5 °F 26.1 °F 67% 29.88 in 10.0 mi South 10.4 mph - N/A   Clear
2:56 PM 36.0 °F 27.5 °F 26.1 °F 67% 29.86 in 10.0 mi SSE 12.7 mph - N/A   Clear
3:56 PM 36.0 °F 28.5 °F 26.1 °F 67% 29.86 in 10.0 mi South 10.4 mph - N/A   Clear
4:56 PM 35.1 °F 27.4 °F 25.0 °F 67% 29.84 in 10.0 mi South 10.4 mph - N/A   Clear
5:56 PM 34.0 °F 26.6 °F 26.1 °F 73% 29.84 in 10.0 mi South 9.2 mph - N/A   Scattered Clouds
6:56 PM 33.1 °F 26.1 °F 26.1 °F 75% 29.82 in 10.0 mi South 8.1 mph - N/A   Scattered Clouds
7:46 PM 33.8 °F 26.4 °F 26.6 °F 75% 29.78 in 10.0 mi South 9.2 mph - N/A   Overcast
7:56 PM 34.0 °F 27.2 °F 27.0 °F 75% 29.82 in 10.0 mi South 8.1 mph - N/A   Overcast
8:56 PM 37.0 °F 26.4 °F 28.9 °F 73% 29.81 in 10.0 mi SW 20.7 mph 31.1 mph N/A   Overcast
9:56 PM 36.0 °F 26.3 °F 28.0 °F 73% 29.84 in 10.0 mi WSW 16.1 mph 24.2 mph N/A   Overcast
10:56 PM 34.0 °F 23.4 °F 27.0 °F 75% 29.86 in 10.0 mi West 17.3 mph 25.3 mph N/A   Overcast
11:56 PM 32.0 °F 21.2 °F 26.1 °F 79% 29.89 in 9.0 mi WSW 16.1 mph - N/A   Overcast